User: anonymous   Login
Location: Blackwater Beach
(38.5801°N, 75.1577°W)
Time: 05:41:43
(UTC+00:00)
Language:

SJ-6F - Orbit

View from above orbital plane
View from above orbital plane
View from above satellite
View from above satellite

Ground track
Ground track

The orbit is defined by the following mean orbital elements,

1 33409U          26108.96242983 +.00000000 +00000-0 +50617-4 0 00005
2 33409  97.8618 127.8700 0017552 238.0180 121.9340 15.04119451    08
Epoch (UTC): 18 April 2026 23:05:53
Eccentricity: 0.0017552
inclination: 97.8618°
perigee height: 542 km
apogee height: 566 km
right ascension of ascending node: 127.8700°
argument of perigee: 238.0180°
revolutions per day: 15.04119451
mean anomaly at epoch: 121.9340°

The dashed part of the orbit path shows where the satellite is in the earth's shadow,  

DLR